Location: Breungeshain
(50.5000°N, 9.2000°E)
Time: 00:16:33
(UTC+00:00)

ISS - Pass Details

Date: 20 May 2018
Orbit: 402 x 407 km, 51.6° (Epoch: 26 May)

Event Time Altitude Azimuth Distance (km) Brightness Sun altitude
Rises 01:11:40 0° 283° (WNW) 2,320 -0.1 -15.4°
Reaches altitude 10° 01:13:45 10° 283° (WNW) 1,459 -1.2 -15.2°
Maximum altitude 01:17:02 90° 31° (NNE) 408 -3.9 -15.0°
Drops below altitude 10° 01:20:18 10° 104° (ESE) 1,456 -0.8 -14.7°
Sets 01:22:22 0° 105° (ESE) 2,314 0.2 -14.6°
